Location: Home
(42.5358°N, 72.7383°W)
Time: 09:10:54
(UTC-04:00)

A-11 Canister half - Pass Details

Date: 02 July 2022
Orbit: 1514 x 1685 km, 47.2° (Epoch: 15 August)

Event Time Altitude Azimuth Distance (km) Brightness Sun altitude
Rises 03:12:26 0° 290° (WNW) 4,924 11.5 -17.2°
Reaches altitude 10° 03:15:39 10° 291° (WNW) 3,921 11.0 -16.9°
Maximum altitude 03:25:45 82° 20° (NNE) 1,645 9.2 -15.8°
Drops below altitude 10° 03:35:27 10° 108° (ESE) 3,783 11.3 -14.7°
Sets 03:38:29 0° 110° (ESE) 4,744 11.8 -14.4°
